owner,sensor,date,latitude,longitude,vertical_datum,sea_water_temperature,qcFlag 
SCCF RECON,ioos:station:SCCF:56:1,2016-02-01T00:00:00Z,26.4645,-82.1044,1.64,17.37,2 
SCCF RECON,ioos:station:SCCF:56:1,2016-02-01T01:00:00Z,26.4645,-82.1044,1.64,17.08,2 
SCCF RECON,ioos:station:SCCF:56:1,2016-02-01T02:00:00Z,26.4645,-82.1044,1.64,18.08,2 
SCCF RECON,ioos:station:SCCF:56:1,2016-02-01T03:00:00Z,26.4645,-82.1044,1.64,18.19,2 
SCCF RECON,ioos:station:SCCF:56:1,2016-02-01T04:00:00Z,26.4645,-82.1044,1.64,18.2,2 
SCCF RECON,ioos:station:SCCF:56:1,2016-02-01T05:00:00Z,26.4645,-82.1044,1.64,18.27,2 
SCCF RECON,ioos:station:SCCF:56:1,2016-02-01T06:00:00Z,26.4645,-82.1044,1.64,17.93,2 
SCCF RECON,ioos:station:SCCF:56:1,2016-02-01T07:00:00Z,26.4645,-82.1044,1.64,17.36,2 
SCCF RECON,ioos:station:SCCF:56:1,2016-02-01T08:00:00Z,26.4645,-82.1044,1.64,17.56,2 
SCCF RECON,ioos:station:SCCF:56:1,2016-02-01T09:00:00Z,26.4645,-82.1044,1.64,17.38,2 
SCCF RECON,ioos:station:SCCF:56:1,2016-02-01T10:00:00Z,26.4645,-82.1044,1.64,17.44,2 
SCCF RECON,ioos:station:SCCF:56:1,2016-02-01T11:00:00Z,26.4645,-82.1044,1.64,17.56,2 
SCCF RECON,ioos:station:SCCF:56:1,2016-02-01T12:00:00Z,26.4645,-82.1044,1.64,17.6,2 
SCCF RECON,ioos:station:SCCF:56:1,2016-02-01T13:00:00Z,26.4645,-82.1044,1.64,17.43,2 
SCCF RECON,ioos:station:SCCF:56:1,2016-02-01T14:00:00Z,26.4645,-82.1044,1.64,17.49,2 
SCCF RECON,ioos:station:SCCF:56:1,2016-02-01T15:00:00Z,26.4645,-82.1044,1.64,17.63,2 
SCCF RECON,ioos:station:SCCF:56:1,2016-02-01T16:00:00Z,26.4645,-82.1044,1.64,17.99,2 
SCCF RECON,ioos:station:SCCF:56:1,2016-02-01T17:00:00Z,26.4645,-82.1044,1.64,18.62,2 
SCCF RECON,ioos:station:SCCF:56:1,2016-02-01T18:00:00Z,26.4645,-82.1044,1.64,18.37,2 
SCCF RECON,ioos:station:SCCF:56:1,2016-02-01T19:00:00Z,26.4645,-82.1044,1.64,18.26,2 
SCCF RECON,ioos:station:SCCF:56:1,2016-02-01T20:00:00Z,26.4645,-82.1044,1.64,18.19,2 
SCCF RECON,ioos:station:SCCF:56:1,2016-02-01T21:00:00Z,26.4645,-82.1044,1.64,18.33,2 
SCCF RECON,ioos:station:SCCF:56:1,2016-02-01T22:00:00Z,26.4645,-82.1044,1.64,18.58,2 
SCCF RECON,ioos:station:SCCF:56:1,2016-02-01T23:00:00Z,26.4645,-82.1044,1.64,18.82,2 
SCCF RECON,ioos:station:SCCF:56:1,2016-02-02T00:00:00Z,26.4645,-82.1044,1.64,17.66,2 
SCCF RECON,ioos:station:SCCF:56:1,2016-02-02T01:00:00Z,26.4645,-82.1044,1.64,18.01,2 
SCCF RECON,ioos:station:SCCF:56:1,2016-02-02T02:00:00Z,26.4645,-82.1044,1.64,17.9,2 
SCCF RECON,ioos:station:SCCF:56:1,2016-02-02T03:00:00Z,26.4645,-82.1044,1.64,19.41,2 
SCCF RECON,ioos:station:SCCF:56:1,2016-02-02T04:00:00Z,26.4645,-82.1044,1.64,19.58,2 
SCCF RECON,ioos:station:SCCF:56:1,2016-02-02T05:00:00Z,26.4645,-82.1044,1.64,20.07,2 
SCCF RECON,ioos:station:SCCF:56:1,2016-02-02T06:00:00Z,26.4645,-82.1044,1.64,20.42,2 
SCCF RECON,ioos:station:SCCF:56:1,2016-02-02T07:00:00Z,26.4645,-82.1044,1.64,20.68,2 
SCCF RECON,ioos:station:SCCF:56:1,2016-02-02T08:00:00Z,26.4645,-82.1044,1.64,20.81,2 
SCCF RECON,ioos:station:SCCF:56:1,2016-02-02T09:00:00Z,26.4645,-82.1044,1.64,20.49,2 
SCCF RECON,ioos:station:SCCF:56:1,2016-02-02T10:00:00Z,26.4645,-82.1044,1.64,19.64,2 
SCCF RECON,ioos:station:SCCF:56:1,2016-02-02T11:00:00Z,26.4645,-82.1044,1.64,18.87,2 
SCCF RECON,ioos:station:SCCF:56:1,2016-02-02T12:00:00Z,26.4645,-82.1044,1.64,18.54,2 
SCCF RECON,ioos:station:SCCF:56:1,2016-02-02T13:00:00Z,26.4645,-82.1044,1.64,19.02,2 
SCCF RECON,ioos:station:SCCF:56:1,2016-02-02T14:00:00Z,26.4645,-82.1044,1.64,18.86,2 
SCCF RECON,ioos:station:SCCF:56:1,2016-02-02T15:00:00Z,26.4645,-82.1044,1.64,18.24,2 
SCCF RECON,ioos:station:SCCF:56:1,2016-02-02T16:00:00Z,26.4645,-82.1044,1.64,17.84,2 
SCCF RECON,ioos:station:SCCF:56:1,2016-02-02T17:00:00Z,26.4645,-82.1044,1.64,18.18,2 
SCCF RECON,ioos:station:SCCF:56:1,2016-02-02T18:00:00Z,26.4645,-82.1044,1.64,18.31,2 
SCCF RECON,ioos:station:SCCF:56:1,2016-02-02T19:00:00Z,26.4645,-82.1044,1.64,18.58,2 
SCCF RECON,ioos:station:SCCF:56:1,2016-02-02T20:00:00Z,26.4645,-82.1044,1.64,18.9,2 
SCCF RECON,ioos:station:SCCF:56:1,2016-02-02T21:00:00Z,26.4645,-82.1044,1.64,19.73,2 
SCCF RECON,ioos:station:SCCF:56:1,2016-02-02T22:00:00Z,26.4645,-82.1044,1.64,20.79,2 
SCCF RECON,ioos:station:SCCF:56:1,2016-02-02T23:00:00Z,26.4645,-82.1044,1.64,19.47,2 
SCCF RECON,ioos:station:SCCF:56:1,2016-02-03T00:00:00Z,26.4645,-82.1044,1.64,19.2,2 
SCCF RECON,ioos:station:SCCF:56:1,2016-02-03T01:00:00Z,26.4645,-82.1044,1.64,18.64,2 
SCCF RECON,ioos:station:SCCF:56:1,2016-02-03T02:00:00Z,26.4645,-82.1044,1.64,18.65,2 
SCCF RECON,ioos:station:SCCF:56:1,2016-02-03T03:00:00Z,26.4645,-82.1044,1.64,19.3,2 
SCCF RECON,ioos:station:SCCF:56:1,2016-02-03T04:00:00Z,26.4645,-82.1044,1.64,20.28,2 
SCCF RECON,ioos:station:SCCF:56:1,2016-02-03T05:00:00Z,26.4645,-82.1044,1.64,20.48,2 
SCCF RECON,ioos:station:SCCF:56:1,2016-02-03T06:00:00Z,26.4645,-82.1044,1.64,20.85,2 
SCCF RECON,ioos:station:SCCF:56:1,2016-02-03T07:00:00Z,26.4645,-82.1044,1.64,21.16,2 
SCCF RECON,ioos:station:SCCF:56:1,2016-02-03T08:00:00Z,26.4645,-82.1044,1.64,21.35,2 
SCCF RECON,ioos:station:SCCF:56:1,2016-02-03T09:00:00Z,26.4645,-82.1044,1.64,21.45,2 
SCCF RECON,ioos:station:SCCF:56:1,2016-02-03T10:00:00Z,26.4645,-82.1044,1.64,20.9,2 
SCCF RECON,ioos:station:SCCF:56:1,2016-02-03T11:00:00Z,26.4645,-82.1044,1.64,19.71,2 
SCCF RECON,ioos:station:SCCF:56:1,2016-02-03T12:00:00Z,26.4645,-82.1044,1.64,18.84,2 
SCCF RECON,ioos:station:SCCF:56:1,2016-02-03T13:00:00Z,26.4645,-82.1044,1.64,18.87,2 
SCCF RECON,ioos:station:SCCF:56:1,2016-02-03T14:00:00Z,26.4645,-82.1044,1.64,19.55,2 
SCCF RECON,ioos:station:SCCF:56:1,2016-02-03T15:00:00Z,26.4645,-82.1044,1.64,20.12,2 
SCCF RECON,ioos:station:SCCF:56:1,2016-02-03T16:00:00Z,26.4645,-82.1044,1.64,19.52,2 
SCCF RECON,ioos:station:SCCF:56:1,2016-02-03T17:00:00Z,26.4645,-82.1044,1.64,19.55,2 
SCCF RECON,ioos:station:SCCF:56:1,2016-02-03T18:00:00Z,26.4645,-82.1044,1.64,19.81,2 
SCCF RECON,ioos:station:SCCF:56:1,2016-02-03T19:00:00Z,26.4645,-82.1044,1.64,19.62,2 
SCCF RECON,ioos:station:SCCF:56:1,2016-02-03T20:00:00Z,26.4645,-82.1044,1.64,20.29,2 
SCCF RECON,ioos:station:SCCF:56:1,2016-02-03T21:00:00Z,26.4645,-82.1044,1.64,20.8,2 
SCCF RECON,ioos:station:SCCF:56:1,2016-02-03T22:00:00Z,26.4645,-82.1044,1.64,20.41,2 
SCCF RECON,ioos:station:SCCF:56:1,2016-02-03T23:00:00Z,26.4645,-82.1044,1.64,20.22,2 
SCCF RECON,ioos:station:SCCF:56:1,2016-02-04T00:00:00Z,26.4645,-82.1044,1.64,20.14,2 
SCCF RECON,ioos:station:SCCF:56:1,2016-02-04T01:00:00Z,26.4645,-82.1044,1.64,20.06,2 
SCCF RECON,ioos:station:SCCF:56:1,2016-02-04T02:00:00Z,26.4645,-82.1044,1.64,20.07,2 
SCCF RECON,ioos:station:SCCF:56:1,2016-02-04T03:00:00Z,26.4645,-82.1044,1.64,20.1,2 
SCCF RECON,ioos:station:SCCF:56:1,2016-02-04T04:00:00Z,26.4645,-82.1044,1.64,20.1,2 
SCCF RECON,ioos:station:SCCF:56:1,2016-02-04T05:00:00Z,26.4645,-82.1044,1.64,20.33,2 
SCCF RECON,ioos:station:SCCF:56:1,2016-02-04T06:00:00Z,26.4645,-82.1044,1.64,20.57,2 
SCCF RECON,ioos:station:SCCF:56:1,2016-02-04T07:00:00Z,26.4645,-82.1044,1.64,20.89,2 
SCCF RECON,ioos:station:SCCF:56:1,2016-02-04T08:00:00Z,26.4645,-82.1044,1.64,21.14,2 
SCCF RECON,ioos:station:SCCF:56:1,2016-02-04T09:00:00Z,26.4645,-82.1044,1.64,21.29,2 
SCCF RECON,ioos:station:SCCF:56:1,2016-02-04T10:00:00Z,26.4645,-82.1044,1.64,21.38,2 
SCCF RECON,ioos:station:SCCF:56:1,2016-02-04T11:00:00Z,26.4645,-82.1044,1.64,21.39,2 
SCCF RECON,ioos:station:SCCF:56:1,2016-02-04T12:00:00Z,26.4645,-82.1044,1.64,20.37,2 
SCCF RECON,ioos:station:SCCF:56:1,2016-02-04T13:00:00Z,26.4645,-82.1044,1.64,20.17,2 
SCCF RECON,ioos:station:SCCF:56:1,2016-02-04T14:00:00Z,26.4645,-82.1044,1.64,20.05,2 
SCCF RECON,ioos:station:SCCF:56:1,2016-02-04T15:00:00Z,26.4645,-82.1044,1.64,20.33,2 
SCCF RECON,ioos:station:SCCF:56:1,2016-02-04T16:00:00Z,26.4645,-82.1044,1.64,20.59,2 
SCCF RECON,ioos:station:SCCF:56:1,2016-02-04T17:00:00Z,26.4645,-82.1044,1.64,20.93,2 
SCCF RECON,ioos:station:SCCF:56:1,2016-02-04T18:00:00Z,26.4645,-82.1044,1.64,21.42,2 
SCCF RECON,ioos:station:SCCF:56:1,2016-02-04T19:00:00Z,26.4645,-82.1044,1.64,21.76,2 
SCCF RECON,ioos:station:SCCF:56:1,2016-02-04T20:00:00Z,26.4645,-82.1044,1.64,21.98,2 
SCCF RECON,ioos:station:SCCF:56:1,2016-02-04T21:00:00Z,26.4645,-82.1044,1.64,22.28,2 
SCCF RECON,ioos:station:SCCF:56:1,2016-02-04T22:00:00Z,26.4645,-82.1044,1.64,21.81,2 
SCCF RECON,ioos:station:SCCF:56:1,2016-02-04T23:00:00Z,26.4645,-82.1044,1.64,21.65,2 
SCCF RECON,ioos:station:SCCF:56:1,2016-02-05T00:00:00Z,26.4645,-82.1044,1.64,21.62,2 
SCCF RECON,ioos:station:SCCF:56:1,2016-02-05T01:00:00Z,26.4645,-82.1044,1.64,21.54,2 
SCCF RECON,ioos:station:SCCF:56:1,2016-02-05T02:00:00Z,26.4645,-82.1044,1.64,21.46,2 
SCCF RECON,ioos:station:SCCF:56:1,2016-02-05T03:00:00Z,26.4645,-82.1044,1.64,21.47,2 
SCCF RECON,ioos:station:SCCF:56:1,2016-02-05T04:00:00Z,26.4645,-82.1044,1.64,21.44,2 
SCCF RECON,ioos:station:SCCF:56:1,2016-02-05T05:00:00Z,26.4645,-82.1044,1.64,21.34,2 
SCCF RECON,ioos:station:SCCF:56:1,2016-02-05T06:00:00Z,26.4645,-82.1044,1.64,21.24,2 
SCCF RECON,ioos:station:SCCF:56:1,2016-02-05T07:00:00Z,26.4645,-82.1044,1.64,21.04,2 
SCCF RECON,ioos:station:SCCF:56:1,2016-02-05T08:00:00Z,26.4645,-82.1044,1.64,20.7,2 
SCCF RECON,ioos:station:SCCF:56:1,2016-02-05T09:00:00Z,26.4645,-82.1044,1.64,20.4,2 
SCCF RECON,ioos:station:SCCF:56:1,2016-02-05T10:00:00Z,26.4645,-82.1044,1.64,19.91,2 
SCCF RECON,ioos:station:SCCF:56:1,2016-02-05T11:00:00Z,26.4645,-82.1044,1.64,19.43,2 
SCCF RECON,ioos:station:SCCF:56:1,2016-02-05T12:00:00Z,26.4645,-82.1044,1.64,18.95,2 
SCCF RECON,ioos:station:SCCF:56:1,2016-02-05T13:00:00Z,26.4645,-82.1044,1.64,18.54,2 
SCCF RECON,ioos:station:SCCF:56:1,2016-02-05T14:00:00Z,26.4645,-82.1044,1.64,18.35,2 
SCCF RECON,ioos:station:SCCF:56:1,2016-02-05T15:00:00Z,26.4645,-82.1044,1.64,18.22,2 
SCCF RECON,ioos:station:SCCF:56:1,2016-02-05T16:00:00Z,26.4645,-82.1044,1.64,18.02,2 
SCCF RECON,ioos:station:SCCF:56:1,2016-02-05T17:00:00Z,26.4645,-82.1044,1.64,17.92,2 
SCCF RECON,ioos:station:SCCF:56:1,2016-02-05T18:00:00Z,26.4645,-82.1044,1.64,18.44,2 
SCCF RECON,ioos:station:SCCF:56:1,2016-02-05T19:00:00Z,26.4645,-82.1044,1.64,18.67,2 
SCCF RECON,ioos:station:SCCF:56:1,2016-02-05T20:00:00Z,26.4645,-82.1044,1.64,19.18,2 
SCCF RECON,ioos:station:SCCF:56:1,2016-02-05T21:00:00Z,26.4645,-82.1044,1.64,19.28,2 
SCCF RECON,ioos:station:SCCF:56:1,2016-02-05T22:00:00Z,26.4645,-82.1044,1.64,19.18,2 
SCCF RECON,ioos:station:SCCF:56:1,2016-02-05T23:00:00Z,26.4645,-82.1044,1.64,19.09,2 
SCCF RECON,ioos:station:SCCF:56:1,2016-02-06T00:00:00Z,26.4645,-82.1044,1.64,18.83,2 
SCCF RECON,ioos:station:SCCF:56:1,2016-02-06T01:00:00Z,26.4645,-82.1044,1.64,18.42,2 
SCCF RECON,ioos:station:SCCF:56:1,2016-02-06T02:00:00Z,26.4645,-82.1044,1.64,18.45,2 
SCCF RECON,ioos:station:SCCF:56:1,2016-02-06T03:00:00Z,26.4645,-82.1044,1.64,18.35,2 
SCCF RECON,ioos:station:SCCF:56:1,2016-02-06T04:00:00Z,26.4645,-82.1044,1.64,18.18,2 
SCCF RECON,ioos:station:SCCF:56:1,2016-02-06T05:00:00Z,26.4645,-82.1044,1.64,18.36,2 
SCCF RECON,ioos:station:SCCF:56:1,2016-02-06T06:00:00Z,26.4645,-82.1044,1.64,18.32,2 
SCCF RECON,ioos:station:SCCF:56:1,2016-02-06T07:00:00Z,26.4645,-82.1044,1.64,17.61,2 
SCCF RECON,ioos:station:SCCF:56:1,2016-02-06T08:00:00Z,26.4645,-82.1044,1.64,17.09,2 
SCCF RECON,ioos:station:SCCF:56:1,2016-02-06T09:00:00Z,26.4645,-82.1044,1.64,17.01,2 
SCCF RECON,ioos:station:SCCF:56:1,2016-02-06T10:00:00Z,26.4645,-82.1044,1.64,16.9,2 
SCCF RECON,ioos:station:SCCF:56:1,2016-02-06T11:00:00Z,26.4645,-82.1044,1.64,16.49,2 
SCCF RECON,ioos:station:SCCF:56:1,2016-02-06T12:00:00Z,26.4645,-82.1044,1.64,16.46,2 
SCCF RECON,ioos:station:SCCF:56:1,2016-02-06T13:00:00Z,26.4645,-82.1044,1.64,16.75,2 
SCCF RECON,ioos:station:SCCF:56:1,2016-02-06T14:00:00Z,26.4645,-82.1044,1.64,16.81,2 
SCCF RECON,ioos:station:SCCF:56:1,2016-02-06T15:00:00Z,26.4645,-82.1044,1.64,17.64,2 
SCCF RECON,ioos:station:SCCF:56:1,2016-02-06T16:00:00Z,26.4645,-82.1044,1.64,17.69,2 
SCCF RECON,ioos:station:SCCF:56:1,2016-02-06T17:00:00Z,26.4645,-82.1044,1.64,17.83,2 
SCCF RECON,ioos:station:SCCF:56:1,2016-02-06T18:00:00Z,26.4645,-82.1044,1.64,18.02,2 
SCCF RECON,ioos:station:SCCF:56:1,2016-02-06T19:00:00Z,26.4645,-82.1044,1.64,17.8,2 
SCCF RECON,ioos:station:SCCF:56:1,2016-02-06T20:00:00Z,26.4645,-82.1044,1.64,17.62,2 
SCCF RECON,ioos:station:SCCF:56:1,2016-02-06T21:00:00Z,26.4645,-82.1044,1.64,17.58,2 
SCCF RECON,ioos:station:SCCF:56:1,2016-02-06T22:00:00Z,26.4645,-82.1044,1.64,17.47,2 
SCCF RECON,ioos:station:SCCF:56:1,2016-02-06T23:00:00Z,26.4645,-82.1044,1.64,17.33,2 
SCCF RECON,ioos:station:SCCF:56:1,2016-02-07T00:00:00Z,26.4645,-82.1044,1.64,17.25,2 
SCCF RECON,ioos:station:SCCF:56:1,2016-02-07T01:00:00Z,26.4645,-82.1044,1.64,17.11,2 
SCCF RECON,ioos:station:SCCF:56:1,2016-02-07T02:00:00Z,26.4645,-82.1044,1.64,16.8,2 
SCCF RECON,ioos:station:SCCF:56:1,2016-02-07T03:00:00Z,26.4645,-82.1044,1.64,16.82,2 
SCCF RECON,ioos:station:SCCF:56:1,2016-02-07T04:00:00Z,26.4645,-82.1044,1.64,16.75,2 
SCCF RECON,ioos:station:SCCF:56:1,2016-02-07T05:00:00Z,26.4645,-82.1044,1.64,16.69,2 
SCCF RECON,ioos:station:SCCF:56:1,2016-02-07T06:00:00Z,26.4645,-82.1044,1.64,16.75,2 
SCCF RECON,ioos:station:SCCF:56:1,2016-02-07T07:00:00Z,26.4645,-82.1044,1.64,16.67,2 
SCCF RECON,ioos:station:SCCF:56:1,2016-02-07T08:00:00Z,26.4645,-82.1044,1.64,16.38,2 
SCCF RECON,ioos:station:SCCF:56:1,2016-02-07T09:00:00Z,26.4645,-82.1044,1.64,15.91,2 
SCCF RECON,ioos:station:SCCF:56:1,2016-02-07T10:00:00Z,26.4645,-82.1044,1.64,15.55,2 
SCCF RECON,ioos:station:SCCF:56:1,2016-02-07T11:00:00Z,26.4645,-82.1044,1.64,15.27,2 
SCCF RECON,ioos:station:SCCF:56:1,2016-02-07T12:00:00Z,26.4645,-82.1044,1.64,15.0,2 
SCCF RECON,ioos:station:SCCF:56:1,2016-02-07T13:00:00Z,26.4645,-82.1044,1.64,14.77,2 
SCCF RECON,ioos:station:SCCF:56:1,2016-02-07T14:00:00Z,26.4645,-82.1044,1.64,14.38,2 
SCCF RECON,ioos:station:SCCF:56:1,2016-02-07T15:00:00Z,26.4645,-82.1044,1.64,14.72,2 
SCCF RECON,ioos:station:SCCF:56:1,2016-02-07T16:00:00Z,26.4645,-82.1044,1.64,14.91,2 
SCCF RECON,ioos:station:SCCF:56:1,2016-02-07T17:00:00Z,26.4645,-82.1044,1.64,15.14,2 
SCCF RECON,ioos:station:SCCF:56:1,2016-02-07T18:00:00Z,26.4645,-82.1044,1.64,15.27,2 
SCCF RECON,ioos:station:SCCF:56:1,2016-02-07T19:00:00Z,26.4645,-82.1044,1.64,15.15,2 
SCCF RECON,ioos:station:SCCF:56:1,2016-02-07T20:00:00Z,26.4645,-82.1044,1.64,16.06,2 
SCCF RECON,ioos:station:SCCF:56:1,2016-02-07T21:00:00Z,26.4645,-82.1044,1.64,16.33,2 
SCCF RECON,ioos:station:SCCF:56:1,2016-02-07T22:00:00Z,26.4645,-82.1044,1.64,16.39,2 
SCCF RECON,ioos:station:SCCF:56:1,2016-02-07T23:00:00Z,26.4645,-82.1044,1.64,16.32,2 
SCCF RECON,ioos:station:SCCF:56:1,2016-02-08T00:00:00Z,26.4645,-82.1044,1.64,15.34,2 
SCCF RECON,ioos:station:SCCF:56:1,2016-02-08T01:00:00Z,26.4645,-82.1044,1.64,15.11,2 
SCCF RECON,ioos:station:SCCF:56:1,2016-02-08T02:00:00Z,26.4645,-82.1044,1.64,15.41,2 
SCCF RECON,ioos:station:SCCF:56:1,2016-02-08T03:00:00Z,26.4645,-82.1044,1.64,15.18,2 
SCCF RECON,ioos:station:SCCF:56:1,2016-02-08T04:00:00Z,26.4645,-82.1044,1.64,15.13,2 
SCCF RECON,ioos:station:SCCF:56:1,2016-02-08T05:00:00Z,26.4645,-82.1044,1.64,15.29,2 
SCCF RECON,ioos:station:SCCF:56:1,2016-02-08T06:00:00Z,26.4645,-82.1044,1.64,15.39,2 
SCCF RECON,ioos:station:SCCF:56:1,2016-02-08T07:00:00Z,26.4645,-82.1044,1.64,14.93,2 
SCCF RECON,ioos:station:SCCF:56:1,2016-02-08T08:00:00Z,26.4645,-82.1044,1.64,14.88,2 
SCCF RECON,ioos:station:SCCF:56:1,2016-02-08T09:00:00Z,26.4645,-82.1044,1.64,14.74,2 
SCCF RECON,ioos:station:SCCF:56:1,2016-02-08T10:00:00Z,26.4645,-82.1044,1.64,14.59,2 
SCCF RECON,ioos:station:SCCF:56:1,2016-02-08T11:00:00Z,26.4645,-82.1044,1.64,14.41,2 
SCCF RECON,ioos:station:SCCF:56:1,2016-02-08T12:00:00Z,26.4645,-82.1044,1.64,14.19,2 
SCCF RECON,ioos:station:SCCF:56:1,2016-02-08T13:00:00Z,26.4645,-82.1044,1.64,14.03,2 
SCCF RECON,ioos:station:SCCF:56:1,2016-02-08T14:00:00Z,26.4645,-82.1044,1.64,14.11,2 
SCCF RECON,ioos:station:SCCF:56:1,2016-02-08T15:00:00Z,26.4645,-82.1044,1.64,14.59,2 
SCCF RECON,ioos:station:SCCF:56:1,2016-02-08T16:00:00Z,26.4645,-82.1044,1.64,15.29,2 
SCCF RECON,ioos:station:SCCF:56:1,2016-02-08T17:00:00Z,26.4645,-82.1044,1.64,15.6,2 
SCCF RECON,ioos:station:SCCF:56:1,2016-02-08T18:00:00Z,26.4645,-82.1044,1.64,16.36,2 
SCCF RECON,ioos:station:SCCF:56:1,2016-02-08T19:00:00Z,26.4645,-82.1044,1.64,16.65,2 
SCCF RECON,ioos:station:SCCF:56:1,2016-02-08T20:00:00Z,26.4645,-82.1044,1.64,16.52,2 
SCCF RECON,ioos:station:SCCF:56:1,2016-02-08T21:00:00Z,26.4645,-82.1044,1.64,16.76,2 
SCCF RECON,ioos:station:SCCF:56:1,2016-02-08T22:00:00Z,26.4645,-82.1044,1.64,16.84,2 
SCCF RECON,ioos:station:SCCF:56:1,2016-02-08T23:00:00Z,26.4645,-82.1044,1.64,16.82,2 
SCCF RECON,ioos:station:SCCF:56:1,2016-02-09T00:00:00Z,26.4645,-82.1044,1.64,16.85,2 
SCCF RECON,ioos:station:SCCF:56:1,2016-02-09T01:00:00Z,26.4645,-82.1044,1.64,16.91,2 
SCCF RECON,ioos:station:SCCF:56:1,2016-02-09T02:00:00Z,26.4645,-82.1044,1.64,16.45,2 
SCCF RECON,ioos:station:SCCF:56:1,2016-02-09T03:00:00Z,26.4645,-82.1044,1.64,16.41,2 
SCCF RECON,ioos:station:SCCF:56:1,2016-02-09T04:00:00Z,26.4645,-82.1044,1.64,16.02,2 
SCCF RECON,ioos:station:SCCF:56:1,2016-02-09T05:00:00Z,26.4645,-82.1044,1.64,16.0,2 
SCCF RECON,ioos:station:SCCF:56:1,2016-02-09T06:00:00Z,26.4645,-82.1044,1.64,16.04,2 
SCCF RECON,ioos:station:SCCF:56:1,2016-02-09T07:00:00Z,26.4645,-82.1044,1.64,15.95,2 
SCCF RECON,ioos:station:SCCF:56:1,2016-02-09T08:00:00Z,26.4645,-82.1044,1.64,15.98,2 
SCCF RECON,ioos:station:SCCF:56:1,2016-02-09T09:00:00Z,26.4645,-82.1044,1.64,16.03,2 
SCCF RECON,ioos:station:SCCF:56:1,2016-02-09T10:00:00Z,26.4645,-82.1044,1.64,16.05,2 
SCCF RECON,ioos:station:SCCF:56:1,2016-02-09T11:00:00Z,26.4645,-82.1044,1.64,16.01,2 
SCCF RECON,ioos:station:SCCF:56:1,2016-02-09T12:00:00Z,26.4645,-82.1044,1.64,15.87,2 
SCCF RECON,ioos:station:SCCF:56:1,2016-02-09T13:00:00Z,26.4645,-82.1044,1.64,15.76,2 
SCCF RECON,ioos:station:SCCF:56:1,2016-02-09T14:00:00Z,26.4645,-82.1044,1.64,15.65,2 
SCCF RECON,ioos:station:SCCF:56:1,2016-02-09T15:00:00Z,26.4645,-82.1044,1.64,15.63,2 
SCCF RECON,ioos:station:SCCF:56:1,2016-02-09T16:00:00Z,26.4645,-82.1044,1.64,15.77,2 
SCCF RECON,ioos:station:SCCF:56:1,2016-02-09T17:00:00Z,26.4645,-82.1044,1.64,15.95,2 
SCCF RECON,ioos:station:SCCF:56:1,2016-02-09T18:00:00Z,26.4645,-82.1044,1.64,15.85,2 
SCCF RECON,ioos:station:SCCF:56:1,2016-02-09T19:00:00Z,26.4645,-82.1044,1.64,15.81,2 
SCCF RECON,ioos:station:SCCF:56:1,2016-02-09T20:00:00Z,26.4645,-82.1044,1.64,15.9,2 
SCCF RECON,ioos:station:SCCF:56:1,2016-02-09T21:00:00Z,26.4645,-82.1044,1.64,16.26,2 
SCCF RECON,ioos:station:SCCF:56:1,2016-02-09T22:00:00Z,26.4645,-82.1044,1.64,16.47,2 
SCCF RECON,ioos:station:SCCF:56:1,2016-02-09T23:00:00Z,26.4645,-82.1044,1.64,16.6,2 
SCCF RECON,ioos:station:SCCF:56:1,2016-02-10T00:00:00Z,26.4645,-82.1044,1.64,16.6,2 
SCCF RECON,ioos:station:SCCF:56:1,2016-02-10T01:00:00Z,26.4645,-82.1044,1.64,16.56,2 
SCCF RECON,ioos:station:SCCF:56:1,2016-02-10T02:00:00Z,26.4645,-82.1044,1.64,16.57,2 
SCCF RECON,ioos:station:SCCF:56:1,2016-02-10T03:00:00Z,26.4645,-82.1044,1.64,15.37,2 
SCCF RECON,ioos:station:SCCF:56:1,2016-02-10T04:00:00Z,26.4645,-82.1044,1.64,15.67,2 
SCCF RECON,ioos:station:SCCF:56:1,2016-02-10T05:00:00Z,26.4645,-82.1044,1.64,15.53,2 
SCCF RECON,ioos:station:SCCF:56:1,2016-02-10T06:00:00Z,26.4645,-82.1044,1.64,15.43,2 
SCCF RECON,ioos:station:SCCF:56:1,2016-02-10T07:00:00Z,26.4645,-82.1044,1.64,15.42,2 
SCCF RECON,ioos:station:SCCF:56:1,2016-02-10T08:00:00Z,26.4645,-82.1044,1.64,15.4,2 
SCCF RECON,ioos:station:SCCF:56:1,2016-02-10T09:00:00Z,26.4645,-82.1044,1.64,15.32,2 
SCCF RECON,ioos:station:SCCF:56:1,2016-02-10T10:00:00Z,26.4645,-82.1044,1.64,15.38,2 
SCCF RECON,ioos:station:SCCF:56:1,2016-02-10T11:00:00Z,26.4645,-82.1044,1.64,15.28,2 
SCCF RECON,ioos:station:SCCF:56:1,2016-02-10T12:00:00Z,26.4645,-82.1044,1.64,15.15,2 
SCCF RECON,ioos:station:SCCF:56:1,2016-02-10T13:00:00Z,26.4645,-82.1044,1.64,15.03,2 
SCCF RECON,ioos:station:SCCF:56:1,2016-02-10T14:00:00Z,26.4645,-82.1044,1.64,14.95,2 
SCCF RECON,ioos:station:SCCF:56:1,2016-02-10T15:00:00Z,26.4645,-82.1044,1.64,15.02,2 
SCCF RECON,ioos:station:SCCF:56:1,2016-02-10T16:00:00Z,26.4645,-82.1044,1.64,15.34,2 
SCCF RECON,ioos:station:SCCF:56:1,2016-02-10T17:00:00Z,26.4645,-82.1044,1.64,16.0,2 
SCCF RECON,ioos:station:SCCF:56:1,2016-02-10T18:00:00Z,26.4645,-82.1044,1.64,16.29,2 
SCCF RECON,ioos:station:SCCF:56:1,2016-02-10T19:00:00Z,26.4645,-82.1044,1.64,16.41,2 
SCCF RECON,ioos:station:SCCF:56:1,2016-02-10T20:00:00Z,26.4645,-82.1044,1.64,16.53,2 
SCCF RECON,ioos:station:SCCF:56:1,2016-02-10T21:00:00Z,26.4645,-82.1044,1.64,16.46,2 
SCCF RECON,ioos:station:SCCF:56:1,2016-02-10T22:00:00Z,26.4645,-82.1044,1.64,16.63,2 
SCCF RECON,ioos:station:SCCF:56:1,2016-02-10T23:00:00Z,26.4645,-82.1044,1.64,16.85,2 
SCCF RECON,ioos:station:SCCF:56:1,2016-02-11T00:00:00Z,26.4645,-82.1044,1.64,16.87,2 
SCCF RECON,ioos:station:SCCF:56:1,2016-02-11T01:00:00Z,26.4645,-82.1044,1.64,16.79,2 
SCCF RECON,ioos:station:SCCF:56:1,2016-02-11T02:00:00Z,26.4645,-82.1044,1.64,16.73,2 
SCCF RECON,ioos:station:SCCF:56:1,2016-02-11T03:00:00Z,26.4645,-82.1044,1.64,16.62,2 
SCCF RECON,ioos:station:SCCF:56:1,2016-02-11T04:00:00Z,26.4645,-82.1044,1.64,16.05,2 
SCCF RECON,ioos:station:SCCF:56:1,2016-02-11T05:00:00Z,26.4645,-82.1044,1.64,15.12,2 
SCCF RECON,ioos:station:SCCF:56:1,2016-02-11T06:00:00Z,26.4645,-82.1044,1.64,15.6,2 
SCCF RECON,ioos:station:SCCF:56:1,2016-02-11T07:00:00Z,26.4645,-82.1044,1.64,15.56,2 
SCCF RECON,ioos:station:SCCF:56:1,2016-02-11T08:00:00Z,26.4645,-82.1044,1.64,15.48,2 
SCCF RECON,ioos:station:SCCF:56:1,2016-02-11T09:00:00Z,26.4645,-82.1044,1.64,15.64,2 
SCCF RECON,ioos:station:SCCF:56:1,2016-02-11T10:00:00Z,26.4645,-82.1044,1.64,15.29,2 
SCCF RECON,ioos:station:SCCF:56:1,2016-02-11T11:00:00Z,26.4645,-82.1044,1.64,15.02,2 
SCCF RECON,ioos:station:SCCF:56:1,2016-02-11T12:00:00Z,26.4645,-82.1044,1.64,14.74,2 
SCCF RECON,ioos:station:SCCF:56:1,2016-02-11T13:00:00Z,26.4645,-82.1044,1.64,14.59,2 
SCCF RECON,ioos:station:SCCF:56:1,2016-02-11T14:00:00Z,26.4645,-82.1044,1.64,14.47,2 
SCCF RECON,ioos:station:SCCF:56:1,2016-02-11T15:00:00Z,26.4645,-82.1044,1.64,14.6,2 
SCCF RECON,ioos:station:SCCF:56:1,2016-02-11T16:00:00Z,26.4645,-82.1044,1.64,14.73,2 
SCCF RECON,ioos:station:SCCF:56:1,2016-02-11T17:00:00Z,26.4645,-82.1044,1.64,16.93,2 
SCCF RECON,ioos:station:SCCF:56:1,2016-02-11T18:00:00Z,26.4645,-82.1044,1.64,16.66,2 
SCCF RECON,ioos:station:SCCF:56:1,2016-02-11T19:00:00Z,26.4645,-82.1044,1.64,16.69,2 
SCCF RECON,ioos:station:SCCF:56:1,2016-02-11T20:00:00Z,26.4645,-82.1044,1.64,17.24,2 
SCCF RECON,ioos:station:SCCF:56:1,2016-02-11T21:00:00Z,26.4645,-82.1044,1.64,17.13,2 
SCCF RECON,ioos:station:SCCF:56:1,2016-02-11T22:00:00Z,26.4645,-82.1044,1.64,17.06,2 
SCCF RECON,ioos:station:SCCF:56:1,2016-02-11T23:00:00Z,26.4645,-82.1044,1.64,17.23,2 
SCCF RECON,ioos:station:SCCF:56:1,2016-02-12T00:00:00Z,26.4645,-82.1044,1.64,17.15,2 
SCCF RECON,ioos:station:SCCF:56:1,2016-02-12T01:00:00Z,26.4645,-82.1044,1.64,17.19,2 
SCCF RECON,ioos:station:SCCF:56:1,2016-02-12T02:00:00Z,26.4645,-82.1044,1.64,17.16,2 
SCCF RECON,ioos:station:SCCF:56:1,2016-02-12T03:00:00Z,26.4645,-82.1044,1.64,17.15,2 
SCCF RECON,ioos:station:SCCF:56:1,2016-02-12T04:00:00Z,26.4645,-82.1044,1.64,16.61,2 
SCCF RECON,ioos:station:SCCF:56:1,2016-02-12T05:00:00Z,26.4645,-82.1044,1.64,16.54,2 
SCCF RECON,ioos:station:SCCF:56:1,2016-02-12T06:00:00Z,26.4645,-82.1044,1.64,16.48,2 
SCCF RECON,ioos:station:SCCF:56:1,2016-02-12T07:00:00Z,26.4645,-82.1044,1.64,16.31,2 
SCCF RECON,ioos:station:SCCF:56:1,2016-02-12T08:00:00Z,26.4645,-82.1044,1.64,16.06,2 
SCCF RECON,ioos:station:SCCF:56:1,2016-02-12T09:00:00Z,26.4645,-82.1044,1.64,15.65,2 
SCCF RECON,ioos:station:SCCF:56:1,2016-02-12T10:00:00Z,26.4645,-82.1044,1.64,15.73,2 
SCCF RECON,ioos:station:SCCF:56:1,2016-02-12T11:00:00Z,26.4645,-82.1044,1.64,15.95,2 
SCCF RECON,ioos:station:SCCF:56:1,2016-02-12T12:00:00Z,26.4645,-82.1044,1.64,15.84,2 
SCCF RECON,ioos:station:SCCF:56:1,2016-02-12T13:00:00Z,26.4645,-82.1044,1.64,15.69,2 